Weather History for Billings, MT

Change the Weather History Date:

Tuesday, July 2, 2013

  Actual Average Record
Temperature  
Mean Temperature 79 °F 70 °F  
Max Temperature 94 °F 83 °F 100 °F (1936)
Min Temperature 64 °F 56 °F 42 °F (1955)
Degree Days  
Heating Degree Days 0 1  
Month to date heating degree days 0 2  
Since 1 June heating degree days 73 98  
Since 1 July heating degree days 0 2  
Cooling Degree Days 14 6  
Month to date cooling degree days 25 12  
Year to date cooling degree days 148 114  
Since 1 June cooling degree days 121 97  
Growing Degree Days 28 (Base 50)    
Moisture  
Dew Point 52 °F    
Average Humidity 45    
Maximum Humidity 68    
Minimum Humidity 21    
Precipitation  
Precipitation 0.00 in 0.06 in 1.86 in (1958)
Month to date precipitation 0.00 0.11  
Year to date precipitation 7.32 8.09  
Snow  
Snow 0.00 in 0.00 in T in (1994)
Month to date snowfall 0.0 0.0  
Since 1 June snowfall 0.0 0.0  
Since 1 July snowfall 0.0 0.0  
Snow Depth 0.00 in    
Sea Level Pressure  
Sea Level Pressure 30.00 in    
Wind  
Wind Speed 6 mph (SSW)    
Max Wind Speed 13 mph    
Max Gust Speed 16 mph    
Visibility 10 miles    
Events      
T = Trace of Precipitation, MM = Missing Value Source: NWS Daily Summary

Daily Weather History Graph

Daily Weather History Graph

Search for Another Location

Airport:

Trip Planner

Search our weather history database for the weather conditions in past years. The results will help you decide how hot, cold, wet, or windy it might be!

Date:

Astronomy

Jul. 02, 2013 Rise Set
Actual Time 5:28 AM MDT 9:07 PM MDT
Civil Twilight 4:50 AM MDT 9:45 PM MDT
Nautical Twilight 4:00 AM MDT 10:35 PM MDT
Astronomical Twilight 2:51 AM MDT 11:44 PM MDT
Moon 1:42 AM MDT (7/2) 4:16 PM MDT (7/2)
Length of Visible Light 16h 54m
Length of Day
15h 38m
Waning Crescent, 26% of the Moon is Illuminated
Jul 2
Waning Crescent
Jul 8
New
Jul 15
First Quarter
Jul 22
Full
Jul 29
Last Quarter

Hourly Weather History & Observations

Time (MDT) Temp. Heat Index Dew Point Humidity Pressure Visibility Wind Dir Wind Speed Gust Speed Precip Events Conditions
12:53 AM 71.1 °F - 53.1 °F 53% 30.07 in 10.0 mi Calm Calm - N/A   Clear
1:53 AM 69.1 °F - 53.1 °F 57% 30.06 in 10.0 mi NNW 4.6 mph - N/A   Clear
2:53 AM 66.9 °F - 52.0 °F 59% 30.07 in 10.0 mi NW 4.6 mph - N/A   Clear
3:53 AM 66.0 °F - 52.0 °F 60% 30.07 in 10.0 mi North 3.5 mph - N/A   Clear
4:53 AM 66.0 °F - 55.0 °F 68% 30.07 in 10.0 mi SSW 4.6 mph - N/A   Partly Cloudy
5:53 AM 64.9 °F - 55.0 °F 70% 30.07 in 10.0 mi WSW 5.8 mph - N/A   Partly Cloudy
6:53 AM 66.9 °F - 54.0 °F 63% 30.09 in 10.0 mi WSW 5.8 mph - N/A   Partly Cloudy
7:53 AM 68.0 °F - 55.9 °F 65% 30.09 in 10.0 mi SW 6.9 mph - N/A   Clear
8:53 AM 71.1 °F - 55.9 °F 59% 30.08 in 10.0 mi SW 9.2 mph - N/A   Clear
9:53 AM 75.9 °F - 57.0 °F 52% 30.07 in 10.0 mi SSW 6.9 mph - N/A   Clear
10:53 AM 80.1 °F 80.4 °F 57.0 °F 45% 30.06 in 10.0 mi SSW 5.8 mph - N/A   Partly Cloudy
11:53 AM 84.9 °F - 52.0 °F 32% 30.03 in 10.0 mi Variable 5.8 mph - N/A   Partly Cloudy
12:53 PM 87.1 °F - 51.1 °F 29% 30.02 in 10.0 mi WSW 5.8 mph - N/A   Partly Cloudy
1:53 PM 89.1 °F - 48.9 °F 25% 30.01 in 10.0 mi Variable 4.6 mph - N/A   Partly Cloudy
2:53 PM 91.0 °F - 50.0 °F 24% 29.99 in 10.0 mi Variable 4.6 mph - N/A   Partly Cloudy
3:53 PM 93.0 °F - 48.0 °F 21% 29.96 in 10.0 mi Variable 6.9 mph - N/A   Clear
4:53 PM 91.9 °F - 46.9 °F 21% 29.95 in 10.0 mi NE 5.8 mph - N/A   Clear
5:53 PM 91.9 °F - 50.0 °F 24% 29.94 in 10.0 mi East 9.2 mph - N/A   Clear
6:53 PM 91.0 °F 88.5 °F 53.1 °F 27% 29.93 in 10.0 mi NE 6.9 mph - N/A   Clear
7:53 PM 89.1 °F 86.9 °F 54.0 °F 30% 29.91 in 10.0 mi East 9.2 mph - N/A   Clear
8:53 PM 86.0 °F - 48.0 °F 27% 29.90 in 10.0 mi ESE 9.2 mph - N/A   Partly Cloudy
9:53 PM 82.9 °F - 50.0 °F 32% 29.89 in 10.0 mi SSE 5.8 mph - N/A   Partly Cloudy
10:53 PM 80.1 °F - 50.0 °F 35% 29.88 in 10.0 mi South 4.6 mph - N/A   Partly Cloudy
11:53 PM 79.0 °F - 50.0 °F 36% 29.86 in 10.0 mi SSW 3.5 mph - N/A   Clear